Weather History for PANC - January, 2013

Change the Weather History Date:

Thursday, January 24, 2013

  Actual Average Record
Temperature  
Mean Temperature 32 °F 17 °F  
Max Temperature 40 °F 23 °F 49 °F (1977)
Min Temperature 23 °F 11 °F -27 °F (1973)
Degree Days  
Heating Degree Days 33    
Month to date heating degree days 929  
Since 1 July heating degree days 5940  
Cooling Degree Days 0    
Month to date cooling degree days 0  
Year to date cooling degree days 0  
Moisture  
Dew Point 26 °F    
Average Humidity 76    
Maximum Humidity 92    
Minimum Humidity 59    
Precipitation  
Precipitation 0.00 in 0.03 in 0.24 in (2000)
Month to date precipitation 0.82 0.56  
Year to date precipitation 0.82 0.56  
Snow  
Snow 0.00 in 0.40 in 4.30 in (2000)
Month to date snowfall 9.9 8.7  
Since 1 July snowfall 34.8 46.8  
Snow Depth 11.00 in    
Sea Level Pressure  
Sea Level Pressure 29.43 in    
Wind  
Wind Speed 10 mph (SE)    
Max Wind Speed 16 mph    
Max Gust Speed 30 mph    
Visibility 10 miles    
Events Fog    
T = Trace of Precipitation, MM = Missing Value Source: NWS Daily Summary

Daily Weather History Graph

Daily Weather History Graph

Search for Another Location

Airport or City:

Trip Planner

Search our weather history database for the weather conditions in past years. The results will help you decide how hot, cold, wet, or windy it might be!

Date:

Astronomy

Jan. 24, 2013 Rise Set
Actual Time 9:38 AM AKST 4:47 PM AKST
Civil Twilight 8:45 AM AKST 5:39 PM AKST
Nautical Twilight 7:51 AM AKST 6:33 PM AKST
Astronomical Twilight 7:00 AM AKST 7:24 PM AKST
Moon 2:48 PM AKST (1/24) 7:55 AM AKST (1/24)
Length of Visible Light 8h 53m
Length of Day
7h 08m
Waxing Gibbous, 95% of the Moon is Illuminated
Jan 24
Waxing Gibbous
Jan 26
Full
Feb 3
Last Quarter
Feb 9
New
Feb 17
First Quarter

Hourly Weather History & Observations

Time (AKST) Temp. Windchill Dew Point Humidity Pressure Visibility Wind Dir Wind Speed Gust Speed Precip Events Conditions
12:53 AM 26.1 °F 19.4 °F 23.0 °F 88% 29.38 in 10.0 mi East 5.8 mph - N/A Fog Mostly Cloudy
1:53 AM 25.0 °F - 21.9 °F 88% 29.39 in 10.0 mi Calm Calm - N/A Fog Mostly Cloudy
3:53 AM 25.0 °F 20.7 °F 21.9 °F 88% 29.41 in 10.0 mi ENE 3.5 mph - N/A   Mostly Cloudy
4:53 AM 25.0 °F - 23.0 °F 92% 29.42 in 10.0 mi Calm Calm - N/A   Overcast
5:53 AM 27.0 °F 23.0 °F 23.0 °F 85% 29.42 in 10.0 mi East 3.5 mph - N/A   Overcast
6:53 AM 27.0 °F 21.6 °F 21.9 °F 81% 29.44 in 10.0 mi ESE 4.6 mph - N/A   Overcast
7:53 AM 28.0 °F 20.0 °F 21.9 °F 78% 29.43 in 10.0 mi ESE 8.1 mph - N/A   Overcast
8:53 AM 39.0 °F 31.0 °F 30.0 °F 70% 29.44 in 10.0 mi SSE 13.8 mph 26.5 mph N/A   Mostly Cloudy
9:53 AM 39.0 °F 30.6 °F 30.0 °F 70% 29.46 in 10.0 mi SE 15.0 mph - N/A   Mostly Cloudy
10:53 AM 39.0 °F 30.3 °F 28.9 °F 67% 29.47 in 10.0 mi SSE 16.1 mph 25.3 mph N/A   Mostly Cloudy
11:53 AM 37.9 °F 29.2 °F 28.0 °F 68% 29.48 in 10.0 mi SE 15.0 mph 23.0 mph N/A   Mostly Cloudy
12:53 PM 39.9 °F 31.8 °F 28.0 °F 63% 29.48 in 10.0 mi SSE 15.0 mph 24.2 mph N/A   Mostly Cloudy
1:53 PM 39.9 °F 31.4 °F 27.0 °F 60% 29.47 in 10.0 mi SSE 16.1 mph 21.9 mph N/A   Mostly Cloudy
2:53 PM 39.0 °F 31.0 °F 28.0 °F 65% 29.46 in 10.0 mi SSE 13.8 mph - N/A   Mostly Cloudy
3:53 PM 39.0 °F 31.8 °F 28.0 °F 65% 29.45 in 10.0 mi SSE 11.5 mph - N/A   Mostly Cloudy
4:53 PM 37.9 °F 30.0 °F 27.0 °F 65% 29.45 in 10.0 mi SSE 12.7 mph 23.0 mph N/A   Mostly Cloudy
5:53 PM 37.0 °F 28.5 °F 28.0 °F 70% 29.44 in 10.0 mi SSE 13.8 mph - N/A   Mostly Cloudy
6:53 PM 37.0 °F 28.5 °F 28.0 °F 70% 29.43 in 10.0 mi SSE 13.8 mph 21.9 mph N/A   Mostly Cloudy
7:53 PM 36.0 °F 27.5 °F 28.0 °F 73% 29.42 in 10.0 mi South 12.7 mph - N/A   Overcast
8:53 PM 36.0 °F 27.5 °F 26.1 °F 67% 29.41 in 10.0 mi South 12.7 mph 19.6 mph N/A   Overcast
9:53 PM 36.0 °F 28.5 °F 25.0 °F 64% 29.40 in 10.0 mi SSE 10.4 mph - N/A   Overcast
10:53 PM 36.0 °F 29.0 °F 26.1 °F 67% 29.39 in 10.0 mi South 9.2 mph 19.6 mph N/A   Overcast
11:53 PM 37.0 °F 32.4 °F 26.1 °F 65% 29.37 in 10.0 mi South 5.8 mph - N/A   Overcast